{"data":{"norad_id":48405,"epoch":"2026-09-20T01:11:02.748768Z","epoch_age_seconds":72578,"freshness":"FRESH","line1":"1 48405U 21038BE  26263.04933737 -.00000437  00000+0 -23317-5 0  9996","line2":"2 48405  53.1606 148.3311 0001126  99.2564 260.8565 15.31698257297210","mean_motion":15.31698257,"eccentricity":0.0001126,"inclination_deg":53.1606,"raan_deg":148.3311,"arg_perigee_deg":99.2564,"mean_anomaly_deg":260.8565,"bstar":-2.3317e-6,"rev_number":29721,"period_min":94.01329494364,"perigee_km":469.97400688817,"apogee_km":471.51637515759,"semimajor_km":6848.8821910229,"source":"CELESTRAK","updated_at":"2026-09-20T09:00:38.947811Z"}}